World > North America > United States > New York

Warren County, New York Regional Weather

Lat: 43.51N, Lon: 73.83W
Wx Zone: NYZ042Web Search

Helpful Tip: Type the letters wx in the search engine next time you need to find us.

Feedback


°F Click to change Warren County hourly weather to Imperial units.Click to change Warren County hourly weather to Metric units. °C
Warren County Weather Map
UTC Time: 5/12/2021, 14:34
Your Time:

Warren County, NY Regional Weather

Expires:202105121500;;001181
ASUS41 KALY 121410
RWRALY

NEW YORK STATE HOURLY WEATHER ROUNDUP
NATIONAL WEATHER SERVICE ALBANY NY
1000 AM EDT WED MAY 12 2021

NOTE: "FAIR" INDICATES FEW OR NO CLOUDS BELOW 12,000 FEET WITH NO
SIGNIFICANT WEATHER AND/OR NO OBSTRUCTIONS TO VISIBILITY.


NYZ026>034-041>043-087-121500-
NORTH

  
CITY           SKY/WX    TMP DP  RH WIND       PRES   REMARKS
WATERTOWN      SUNNY     51  41  68 W7        30.21R                  
FORT DRUM      NOT AVBL                                               
OGDENSBURG     FAIR      54  41  62 NW8       30.16S                  
MASSENA        SUNNY     54  38  54 W10G17    30.16S                  
SARANAC LAKE   SUNNY     48  37  65 NW8       30.10R                  
PLATTSBURGH    MOSUNNY   54  40  59 SE10      30.09R                  
$$


SKY/WX - Weather  TMP - Temperature  DP - Dew Point  RH - Relative Humidity
WIND - Wind Direction/Speed PRES - Barometric Pressure VSB - Visibility
WCI - Wind Chill Index E13G22 Wind - East Wind 13 mph/Gusts of 22 mph